EW5543 Weather Reports


time (UTC)temp
C
wind
direction
speed
KPH
gust
KPH
rain 1hr
cm
rain 24hr
cm
rain mn
cm
humidity
%
barometer
mb
20260509161546 12 136 6.4 14.5 0.00 0.00 0.00 82 1008.1
20260509160046 12 155 8.0 16.1 0.00 0.00 0.00 85 1008.5
20260509154541 11 124 1.6 6.4 0.00 0.00 0.00 86 1008.5
20260509153044 11 134 0.0 4.8 0.00 0.00 0.00 86 1008.6
20260509151535 11 209 0.0 6.4 0.00 0.00 0.00 85 1008.8
20260509150039 11 111 1.6 4.8 0.00 0.00 0.00 86 1008.8
20260509144546 11 132 3.2 8.0 0.00 0.00 0.00 86 1008.9
20260509143029 10 139 0.0 4.8 0.00 0.00 0.00 85 1009.0
20260509141532 11 236 3.2 6.4 0.00 0.00 0.00 85 1009.1
20260509140025 10 152 1.6 6.4 0.00 0.00 0.00 86 1009.0
20260509134543 10 138 1.6 8.0 0.00 0.00 0.00 86 1009.2
20260509133022 9 132 1.6 6.4 0.00 0.00 0.00 86 1009.4
20260509131517 9 115 1.6 6.4 0.00 0.00 0.00 87 1009.4
20260509130014 8 138 1.6 6.4 0.00 0.00 0.00 86 1009.6
20260509124510 8 109 1.6 9.7 0.00 0.00 0.00 87 1009.5
20260509123007 8 194 0.0 4.8 0.00 0.00 0.00 86 1009.4
20260509121507 7 196 1.6 8.0 0.00 0.00 0.00 85 1009.5
20260509120115 7 136 1.6 6.4 0.00 0.00 0.00 84 1009.6
20260509114605 6 60 1.6 3.2 0.00 0.00 0.00 84 1009.8
20260509113101 6 60 0.0 3.2 0.00 0.00 0.00 83 1009.8
20260509111606 6 57 1.6 8.0 0.00 0.00 0.00 81 1009.8
20260509110100 6 47 3.2 9.7 0.00 0.00 0.00 81 1009.9
20260509104556 6 45 3.2 8.0 0.00 0.00 0.00 80 1009.8
20260509103104 5 44 1.6 6.4 0.00 0.00 0.00 80 1009.7
20260509101620 5 67 1.6 6.4 0.00 0.00 0.00 80 1009.9
20260509100053 5 55 0.0 4.8 0.00 0.00 0.00 80 1009.8
20260509094559 5 57 3.2 6.4 0.00 0.00 0.00 79 1009.4
20260509093059 5 54 4.8 8.0 0.00 0.00 0.00 79 1009.4
20260509091549 5 57 3.2 8.0 0.00 0.00 0.00 78 1009.6
20260509090057 5 46 4.8 8.0 0.00 0.03 0.00 78 1009.9
20260509084547 5 56 0.0 4.8 0.00 0.03 0.00 77 1010.3
20260509083043 6 55 1.6 4.8 0.00 0.03 0.00 74 1010.3
20260509081545 6 53 3.2 4.8 0.00 0.03 0.00 72 1010.4
20260509080042 6 53 3.2 6.4 0.00 0.05 0.00 70 1010.5
20260509074546 6 62 1.6 9.7 0.00 0.05 0.00 69 1010.7
20260509073045 6 49 1.6 4.8 0.00 0.05 0.00 71 1010.8
20260509071545 6 58 3.2 6.4 0.00 0.05 0.00 72 1010.6
20260509070040 6 97 0.0 4.8 0.00 0.13 0.00 73 1010.7
20260509064542 6 113 0.0 3.2 0.00 0.13 0.00 73 1010.6
20260509063033 6 113 0.0 3.2 0.00 0.13 0.00 73 1010.9
20260509061533 6 113 0.0 4.8 0.00 0.13 0.00 70 1010.9
20260509060036 6 113 0.0 4.8 0.00 0.13 0.00 71 1011.2
20260509054534 6 219 0.0 1.6 0.00 0.13 0.00 74 1011.3
20260509053026 6 219 1.6 3.2 0.00 0.13 0.00 75 1011.5
20260509051523 6 219 0.0 3.2 0.00 0.13 0.00 76 1011.6
20260509050022 6 219 0.0 3.2 0.00 0.13 0.00 76 1011.7
20260509044521 6 219 0.0 1.6 0.00 0.13 0.00 76 1011.9
20260509043020 6 219 0.0 3.2 0.00 0.13 0.00 76 1012.1
20260509041526 6 219 1.6 4.8 0.00 0.13 0.00 75 1012.0
20260509040016 5 219 0.0 3.2 0.00 0.13 0.13 76 1012.0
20260509034515 5 219 0.0 3.2 0.00 0.13 0.13 76 1012.0
20260509033015 5 219 0.0 3.2 0.00 0.13 0.13 76 1012.1
20260509031514 6 219 0.0 3.2 0.00 0.13 0.13 75 1012.0
20260509030014 6 219 0.0 3.2 0.00 0.13 0.13 74 1012.1
20260509024513 6 219 0.0 4.8 0.00 0.13 0.13 72 1012.3
20260509023012 6 121 0.0 3.2 0.00 0.13 0.13 70 1012.3
20260509021512 7 121 0.0 1.6 0.00 0.13 0.13 68 1012.3
20260509020022 7 121 0.0 1.6 0.00 0.13 0.13 67 1012.4
20260509014516 7 121 0.0 3.2 0.00 0.13 0.13 64 1012.3
20260509013018 7 121 0.0 0.0 0.00 0.13 0.13 62 1012.0
20260509011509 8 121 0.0 0.0 0.00 0.13 0.13 59 1011.9
20260509010008 8 121 0.0 1.6 0.00 0.13 0.13 58 1011.7
20260509004515 8 121 1.6 3.2 0.00 0.13 0.13 58 1011.5
20260509003008 9 121 1.6 3.2 0.00 0.13 0.13 57 1011.4
20260509001506 10 121 0.0 3.2 0.00 0.13 0.13 54 1011.2
20260509000006 10 121 0.0 0.0 0.00 0.13 0.13 52 1011.2
20260508234505 11 121 0.0 1.6 0.00 0.13 0.13 51 1011.1
20260508233004 12 121 0.0 0.0 0.00 0.13 0.13 50 1011.0
20260508231503 12 121 0.0 3.2 0.00 0.13 0.13 55 1011.0
20260508230003 12 46 1.6 8.0 0.00 0.13 0.13 51 1011.0
20260508224502 12 312 4.8 9.7 0.00 0.13 0.13 47 1011.0
20260508223100 12 213 3.2 6.4 0.00 0.13 0.13 46 1011.2
20260508223003 12 191 1.6 6.4 0.00 0.13 0.13 46 1011.1
20260508221556 12 307 1.6 6.4 0.00 0.13 0.13 49 1011.1
20260508220055 12 290 3.2 11.3 0.00 0.13 0.13 50 1011.3
20260508214554 12 265 3.2 11.3 0.00 0.13 0.13 49 1011.5
20260508213052 12 308 1.6 6.4 0.00 0.13 0.13 53 1011.4
20260508211552 11 268 0.0 6.4 0.00 0.13 0.13 55 1011.4
20260508210049 11 251 4.8 11.3 0.00 0.13 0.13 55 1011.5
20260508204553 11 207 6.4 16.1 0.00 0.13 0.13 55 1011.7
20260508203049 11 215 9.7 19.3 0.00 0.13 0.13 57 1011.7
20260508201548 11 262 11.3 22.5 0.00 0.13 0.13 55 1012.4
20260508200104 11 265 9.7 22.5 0.00 0.13 0.13 59 1011.9
20260508194544 11 273 9.7 19.3 0.00 0.13 0.13 61 1012.0
20260508193055 10 273 4.8 14.5 0.00 0.13 0.13 65 1012.1
20260508191540 10 250 9.7 22.5 0.00 0.13 0.13 63 1012.1
20260508190038 10 242 4.8 17.7 0.00 0.13 0.13 67 1012.0
20260508184536 10 203 6.4 14.5 0.00 0.13 0.13 68 1012.3
20260508183033 9 244 4.8 14.5 0.00 0.13 0.13 72 1012.5
20260508181540 8 274 6.4 14.5 0.00 0.13 0.13 72 1012.7
20260508180033 8 308 3.2 11.3 0.00 0.13 0.13 74 1012.6
20260508174528 8 223 4.8 14.5 0.00 0.13 0.13 73 1012.7
20260508173027 8 249 6.4 17.7 0.00 0.13 0.13 73 1012.8
20260508171525 8 249 9.7 17.7 0.00 0.13 0.13 75 1012.8
20260508170024 7 253 11.3 17.7 0.00 0.13 0.13 76 1013.0
20260508164522 7 239 9.7 14.5 0.00 0.13 0.13 77 1013.1
20260508163024 7 244 8.0 20.9 0.00 0.13 0.13 77 1013.0